Location: Caledonia
(42.3690°N, 88.8930°W)
Time: 01:06:31
(UTC-06:00)

Hubble Space Telescope - Visible Passes

Search period start: 01 February 2015 00:00
Search period end: 11 February 2015 00:00
Orbit: 544 x 548 km, 28.5° (Epoch: 31 January)

Date Brightness Start Highest point End Pass type
(mag) Time Alt. Az. Time Alt. Az. Time Alt. Az.
01 Feb 3.3 18:27:57 10° SSW 18:29:30 12° S 18:31:06 10° SSE visible
02 Feb 3.3 18:19:43 10° SSW 18:21:21 12° S 18:22:59 10° SSE visible
03 Feb 3.4 18:11:39 10° SSW 18:13:11 12° S 18:14:43 10° SSE visible
04 Feb 3.5 18:03:42 10° SSW 18:05:01 11° S 18:06:17 10° SSE visible
05 Feb 3.6 17:56:05 10° SSW 17:56:49 10° S 17:57:31 10° S visible
